Tracking 29892 objects as of 21-Nov-2024
HD Live streaming from Space Station
objects crossing your sky now

SL-12 R/B(2)

Track SL-12 R/B(2) now!


NORAD ID: 23208
Int'l Code: 1994-050F
Perigee: 19,020.0 km
Apogee: 19,201.7 km
Inclination: 65.4 °
Period: 674.7 minutes
Semi major axis: 25481 km
RCS: 1.9091 m2 (large)
Launch date: August 11, 1994
Source: Commonwealth of Independent States (former USSR) (CIS)
Launch site: TYURATAM MISSILE AND SPACE COMPLEX (TTMTR)

Note: This is a ROCKET BODY
Your satellite tracking list
Your tracking list is empty




NASA's NSSDC Master Catalog

Two Line Element Set (TLE):
1 23208U 94050F   24325.48811550  .00000000  00000-0  00000-0 0  9991
2 23208  65.4227 219.5152 0035656 201.7018   8.3783  2.13430209236006
Source of the keplerian elements: AFSPC